Theta_e
320 322 324 325 326 326 326 326 325 325 325 325 327 327 327 327 327 327 326 326 326 326 325 325 324 324 325 326 326 326 326 326 326 326 326 326 326 328 330 331 330 330 330 330 331 330 330 332 333 334 333 333 332 329 328 328 328 327 315 310 316 321 324 323 321 321 322 320 318 316 315 314 314 316 318 318 319 314 312 315 315 316 318 318 318
321 323 324 325 326 325 325 325 325 324 324 324 326 327 327 327 327 327 327 327 327 326 326 325 324 323 324 326 327 327 326 326 325 325 325 325 325 326 328 330 331 331 330 329 330 330 330 332 332 334 333 333 332 330 330 329 329 328 319 310 312 321 324 323 320 319 319 317 315 314 314 315 316 318 320 319 318 314 311 314 314 315 316 318 318
323 323 323 324 325 324 325 325 324 324 323 324 325 326 326 326 327 328 328 328 327 327 326 326 326 325 326 327 328 328 327 327 327 327 326 325 325 325 325 326 330 331 329 327 329 329 330 331 331 332 332 332 332 331 330 330 329 329 323 313 311 318 324 324 321 319 320 318 317 317 316 317 318 319 319 318 317 314 313 314 314 315 314 315 318
323 322 323 324 324 324 324 323 323 323 323 324 325 326 326 326 327 327 327 327 327 327 327 327 327 327 327 328 327 328 328 328 328 328 327 326 325 325 324 324 327 330 328 327 329 330 331 330 330 331 331 331 333 332 331 330 330 330 326 316 311 315 323 325 322 321 322 320 320 320 318 317 317 317 318 318 317 316 316 315 314 316 315 312 315
321 322 322 323 322 323 323 322 322 322 322 323 326 326 326 327 327 327 327 327 326 326 327 327 328 327 328 327 327 327 328 328 328 327 326 326 326 326 325 325 326 328 329 329 330 331 330 330 330 330 330 330 332 333 331 331 330 331 328 319 313 313 319 324 323 322 323 321 321 321 320 317 314 317 319 320 319 318 317 314 313 315 316 314 313
321 321 321 321 321 321 321 321 321 322 321 323 325 326 326 326 327 327 327 326 326 326 326 326 328 328 328 327 327 328 328 327 326 326 325 326 328 328 327 327 327 327 328 329 330 330 330 330 329 330 330 330 332 332 332 331 330 331 330 323 317 314 316 322 323 323 322 322 322 322 321 316 314 317 319 319 319 318 317 315 314 312 314 316 314
320 320 320 320 320 320 320 321 321 322 322 323 325 325 325 325 326 326 326 326 326 325 324 324 326 328 328 328 328 327 327 327 326 326 326 328 328 328 328 327 328 328 327 327 327 328 329 329 329 330 330 330 331 332 332 331 330 331 331 328 322 317 316 320 323 324 322 322 323 323 321 317 314 315 317 319 319 318 317 317 316 311 311 315 315
319 319 319 319 319 319 320 321 322 323 323 324 324 325 325 324 324 324 324 324 323 323 323 322 324 327 327 327 327 327 327 327 328 328 328 327 326 327 327 327 327 328 327 326 325 327 329 329 329 330 330 330 331 332 333 332 330 331 332 331 326 320 317 318 321 325 324 323 324 322 320 318 314 312 317 321 320 318 318 317 317 312 309 314 315
320 320 319 318 318 319 321 322 322 323 323 323 324 323 324 323 323 323 322 322 321 321 321 322 324 325 326 326 327 328 327 327 328 329 327 327 326 325 325 325 326 327 326 326 326 327 328 329 330 330 331 331 331 332 333 332 331 331 330 331 330 324 319 318 319 324 325 324 323 321 319 319 316 313 316 321 321 319 318 317 317 315 311 312 314
318 319 320 318 318 319 320 321 321 321 322 323 323 323 323 323 323 322 321 321 320 320 320 321 322 324 325 327 328 328 328 328 328 328 328 326 324 324 324 325 325 325 325 326 327 327 328 329 329 330 331 330 329 330 332 332 332 332 330 330 331 328 322 319 318 321 324 324 323 321 319 319 318 315 314 318 321 321 318 317 317 316 315 313 312
316 317 319 318 318 319 319 320 320 320 320 321 322 322 322 322 321 321 321 320 320 320 320 321 322 323 326 328 328 329 329 328 328 327 326 324 323 323 324 325 325 325 325 326 327 327 328 328 329 330 330 330 330 330 331 332 332 332 331 330 331 330 326 321 318 319 323 324 323 321 319 319 319 318 315 316 321 321 318 317 316 316 318 316 313
315 316 317 318 318 318 319 319 319 319 318 319 319 320 320 320 320 320 320 320 320 320 320 321 322 324 327 328 329 329 328 328 328 326 325 324 324 324 324 324 325 325 325 326 327 327 327 327 328 329 330 330 330 331 331 331 331 331 331 330 330 331 329 325 320 319 321 323 323 322 319 318 319 319 318 317 321 321 317 316 316 315 316 315 313
315 316 316 318 318 318 318 318 318 318 317 317 317 317 318 317 318 318 318 319 319 319 319 321 323 325 328 329 328 328 328 328 327 326 325 325 325 325 325 325 325 324 325 325 325 325 325 325 326 327 328 330 330 331 330 330 331 331 331 331 330 329 330 328 324 321 321 322 323 322 320 318 318 319 319 317 320 322 320 319 317 314 314 313 313
316 315 315 316 318 319 318 318 318 317 317 316 315 315 315 315 315 315 317 317 318 318 318 321 324 325 327 328 328 327 327 327 327 327 326 326 325 326 326 326 325 325 325 325 325 325 325 325 325 326 328 329 330 330 330 330 331 331 331 332 331 330 330 330 328 325 324 324 323 323 321 319 318 318 319 318 318 321 322 322 319 316 317 314 313
316 316 315 315 317 318 318 318 318 318 317 316 315 314 313 313 313 314 316 318 318 318 318 320 323 325 326 327 327 327 326 326 327 328 327 327 326 326 327 326 326 326 325 325 324 324 324 325 325 327 328 329 329 330 330 331 330 330 331 331 331 331 330 330 330 328 327 326 324 322 322 320 319 319 321 319 317 318 321 322 320 318 320 318 315
316 316 315 314 315 317 318 319 319 318 317 316 315 313 313 313 312 313 316 317 318 318 319 320 323 324 325 326 325 326 326 325 325 327 327 327 327 327 327 327 327 328 326 326 325 324 324 324 325 326 328 329 329 330 330 330 330 330 330 331 331 331 331 330 330 329 329 328 326 323 322 321 319 320 321 321 317 316 318 321 320 316 318 321 319
317 317 315 313 313 315 317 318 318 318 317 316 314 313 313 313 313 314 316 317 318 318 319 320 322 323 324 324 324 325 324 323 324 326 326 326 327 327 327 327 327 328 328 327 326 326 325 325 325 326 328 329 329 330 330 330 330 330 329 330 331 331 331 331 330 330 329 329 328 325 322 321 320 319 320 322 320 317 316 319 321 318 316 318 319
318 317 316 314 313 314 315 316 317 317 316 314 313 312 313 313 313 314 315 316 317 317 318 320 321 322 323 323 323 323 323 322 323 323 323 325 325 325 326 326 327 327 327 327 326 326 326 326 325 325 327 329 329 329 330 330 330 329 328 328 330 330 330 331 330 330 330 330 330 328 325 323 322 319 319 321 320 318 318 318 320 319 315 316 316
319 317 317 315 314 313 314 314 316 316 314 314 313 312 312 312 313 313 314 315 315 316 317 318 319 321 321 322 322 322 322 321 321 320 320 323 323 323 325 325 325 326 326 327 327 327 327 327 327 325 326 327 329 329 329 329 329 329 329 328 329 329 330 330 330 330 330 330 330 329 328 325 323 321 320 321 320 319 319 319 320 319 317 316 316
320 318 317 316 314 313 312 313 314 314 313 313 313 312 312 312 313 313 314 314 314 315 316 317 317 318 318 319 319 320 320 320 320 320 319 320 320 321 323 324 325 325 325 326 326 327 327 327 327 327 326 326 327 328 329 329 328 328 329 329 329 329 330 330 331 330 330 330 330 330 330 329 326 323 321 322 322 322 320 319 320 320 319 318 317
321 319 318 317 315 313 312 312 312 313 313 313 313 313 312 312 312 313 313 314 314 314 315 315 316 316 316 317 317 318 319 320 319 319 319 319 319 319 320 322 324 324 324 326 326 326 327 327 327 327 327 326 326 327 328 329 329 328 328 329 329 329 329 330 330 330 331 330 330 330 330 330 329 326 323 322 323 323 322 320 321 320 320 320 319
322 321 319 318 315 314 313 312 312 312 312 312 313 314 313 312 312 312 312 313 314 314 314 314 314 315 315 315 316 317 318 318 319 318 318 318 318 318 318 319 321 322 322 324 326 326 326 327 327 327 327 327 326 326 327 328 329 329 329 329 329 329 329 330 329 329 330 330 330 330 330 330 329 328 326 323 323 323 322 322 321 321 321 321 321
322 322 321 319 316 314 314 313 313 313 312 312 312 313 313 313 312 312 312 312 313 313 313 313 313 314 314 314 315 315 316 317 317 316 317 316 316 316 316 316 317 319 320 322 324 325 326 327 327 327 327 327 327 327 327 327 327 327 328 328 328 328 329 330 330 329 329 330 330 330 330 330 329 330 329 326 323 323 322 323 323 321 320 320 321
322 322 321 320 317 315 314 314 313 313 313 312 312 312 313 313 312 312 312 312 312 312 312 313 313 313 314 315 315 315 315 315 315 315 315 315 314 314 314 313 313 314 315 318 321 323 325 326 326 326 326 327 327 327 327 327 327 326 326 327 327 327 327 328 330 329 329 330 331 331 330 330 330 329 329 328 326 324 323 323 325 324 321 320 320
321 321 321 320 317 315 315 314 314 313 313 313 313 312 312 313 313 313 313 313 312 312 313 313 313 313 314 314 315 315 315 315 314 314 314 314 314 314 312 312 312 311 312 315 318 320 323 325 325 325 325 326 326 326 326 326 327 327 326 325 325 326 326 327 328 329 330 330 330 331 330 330 330 329 329 329 328 327 325 323 324 325 324 322 320
321 320 320 319 318 315 315 315 314 313 313 314 314 313 313 313 313 313 313 313 313 313 312 312 313 313 313 314 314 314 314 314 314 314 314 314 315 314 313 312 312 311 311 312 314 317 320 322 323 324 325 325 325 325 325 326 326 326 326 326 326 326 326 326 327 327 329 330 330 330 331 330 330 329 329 329 329 328 328 326 325 325 325 324 322
321 321 320 319 318 317 315 315 315 313 313 314 314 314 313 313 313 313 313 313 313 313 313 312 312 312 312 312 313 313 313 314 314 314 314 315 315 315 315 314 313 313 312 311 312 314 316 319 321 322 323 323 324 324 324 324 325 325 325 326 326 327 327 326 326 326 327 328 329 329 329 329 330 330 329 329 329 329 329 328 327 327 326 326 325
321 322 321 320 319 318 316 316 315 313 313 314 314 314 314 313 312 313 313 313 313 314 313 312 312 312 312 312 312 313 314 314 314 314 314 315 316 315 315 315 315 315 314 311 311 313 313 316 317 319 320 321 322 322 322 322 323 324 325 325 326 327 327 327 327 326 326 326 327 328 329 330 330 330 330 330 330 330 329 329 329 328 328 327 327
322 323 323 322 320 319 318 316 315 315 313 314 314 314 314 314 313 313 313 313 314 314 314 313 313 312 312 312 312 312 313 313 313 313 313 315 316 315 315 316 315 316 316 314 312 312 312 314 315 315 316 317 318 319 320 320 321 322 323 324 325 326 327 327 328 327 326 325 325 326 327 329 329 329 329 329 329 329 329 329 329 329 329 328 328
324 325 324 324 322 320 319 317 316 315 314 314 314 314 314 314 314 313 313 314 314 314 314 314 313 312 311 312 312 312 312 313 313 313 313 314 316 316 315 315 315 315 315 315 314 313 313 314 315 315 314 314 315 316 316 318 318 319 320 322 324 325 325 326 327 328 327 327 327 325 325 326 327 327 329 330 330 329 329 329 329 329 329 328 328
325 326 326 325 323 321 320 318 316 316 315 315 314 315 315 314 314 314 314 314 314 314 315 314 314 313 312 311 311 311 312 312 313 313 313 313 314 314 314 314 314 314 314 315 315 314 315 315 316 317 316 315 316 315 315 316 317 318 318 320 322 324 324 325 326 326 327 328 328 328 327 327 327 326 326 328 329 329 328 329 329 328 329 329 328
326 327 326 326 325 323 321 319 318 316 316 315 315 315 315 315 314 314 314 314 314 315 315 315 315 314 312 311 310 311 311 311 312 312 312 312 312 313 314 314 314 314 314 314 315 315 315 315 316 316 317 317 317 316 316 317 318 319 319 320 321 322 323 324 324 325 326 326 327 327 327 327 327 326 326 326 327 327 328 328 328 328 329 329 328
326 327 327 326 326 325 323 321 319 318 316 316 315 315 315 314 315 314 315 314 314 315 315 315 315 315 313 311 309 310 311 311 312 312 312 313 312 312 313 313 313 313 313 313 314 314 314 314 314 315 316 317 317 317 317 317 318 318 319 320 320 321 321 322 323 323 323 324 324 325 326 326 327 327 327 326 326 326 327 328 328 327 328 328 328
326 327 327 327 327 326 325 323 321 319 317 316 316 315 315 315 315 315 315 315 315 315 315 316 316 316 315 312 309 309 310 311 311 312 312 313 312 312 313 313 313 313 313 313 313 313 313 312 311 313 314 316 316 316 316 316 316 317 318 318 319 319 320 320 321 321 322 322 322 323 323 324 325 326 327 327 327 326 325 326 326 327 327 328 328
325 326 327 327 327 327 326 324 322 320 317 316 315 316 316 315 315 315 315 315 315 315 316 316 316 316 316 314 310 308 309 310 311 312 312 313 313 313 312 312 312 312 312 312 312 312 312 312 311 312 313 314 315 316 316 316 315 315 316 317 318 318 319 319 320 320 321 321 321 322 322 323 323 325 326 327 328 328 327 326 326 326 326 328 328
324 324 326 327 328 327 326 323 320 318 317 317 316 316 316 316 315 315 315 316 316 316 316 316 316 316 316 315 312 309 307 308 310 311 312 312 312 312 312 312 312 311 311 311 312 312 313 313 313 312 313 313 314 315 315 315 314 314 314 315 316 318 319 319 320 320 320 321 322 322 323 323 324 324 324 325 326 327 328 327 327 326 325 327 328
324 324 325 326 326 326 324 321 317 315 316 316 317 317 316 316 316 316 316 316 316 316 316 316 317 317 317 315 314 311 308 307 308 311 311 311 312 312 312 313 312 311 311 311 312 313 313 312 312 311 312 312 313 314 314 314 314 313 313 313 313 314 316 318 319 319 320 320 321 322 323 323 324 325 325 325 325 325 326 326 327 327 327 327 327
322 322 322 323 324 324 322 319 315 314 315 316 316 317 316 316 316 317 317 316 317 316 317 317 317 317 317 316 314 313 310 307 307 310 311 311 312 312 313 313 312 311 311 312 312 312 312 310 308 307 307 307 308 309 310 312 313 312 312 312 312 312 313 314 316 318 318 319 319 321 322 323 323 324 325 325 326 325 325 325 326 327 328 328 327
319 319 320 320 320 320 319 316 315 314 314 315 316 316 316 316 317 317 317 317 317 317 317 317 317 317 318 316 315 314 312 309 307 309 311 311 312 312 312 312 312 311 311 311 311 310 309 308 307 306 306 305 305 305 304 306 309 312 313 312 312 312 312 312 312 314 315 317 318 319 320 322 323 324 324 325 325 326 326 326 326 326 327 328 328
319 319 318 318 318 317 316 316 316 316 316 316 316 316 316 316 317 317 317 317 317 317 317 317 317 317 317 316 315 315 314 310 308 309 310 311 311 311 311 311 311 310 310 309 309 308 308 308 309 309 308 308 307 305 303 302 303 307 311 312 312 312 312 312 312 313 313 313 315 316 319 321 321 322 324 324 325 325 325 326 326 326 327 327 327
320 320 319 319 319 318 318 318 318 318 318 318 318 317 317 317 317 317 317 317 317 317 317 317 317 317 317 317 315 315 315 313 309 308 309 310 310 310 310 310 310 310 310 309 309 309 309 310 310 310 310 309 307 306 306 304 301 301 305 310 312 313 313 313 313 314 313 312 312 314 317 319 320 321 322 323 324 325 325 326 326 326 327 327 326
322 321 320 320 320 319 319 319 319 319 319 319 319 318 318 318 317 317 317 317 317 317 317 317 317 317 317 316 315 315 316 315 311 309 309 310 309 309 309 310 310 310 310 310 311 311 311 311 311 311 310 309 307 306 307 307 304 301 302 306 310 312 313 313 313 314 314 314 313 313 315 316 318 319 320 320 322 324 324 325 326 326 326 326 326
322 322 321 321 320 320 320 319 320 319 319 320 319 319 319 318 318 318 318 318 317 317 317 317 317 317 317 317 316 316 316 316 314 311 309 309 309 308 309 309 310 310 311 311 312 312 312 312 312 312 311 309 307 307 308 308 307 304 302 303 308 311 313 313 313 313 314 314 314 313 314 315 315 317 318 318 319 321 322 323 324 325 326 326 326
321 321 321 321 321 320 320 320 320 320 320 320 320 320 319 319 319 319 318 318 318 318 318 317 317 317 317 316 316 316 316 316 316 314 311 309 309 308 309 310 310 311 311 311 311 312 312 312 312 312 311 309 307 307 309 309 308 307 304 303 305 309 312 313 314 314 314 314 314 314 314 315 315 315 316 317 318 318 319 320 322 323 324 325 325
320 320 320 320 320 320 321 321 320 320 320 320 320 320 320 320 319 319 319 318 319 318 318 318 318 317 317 317 317 317 316 317 317 316 314 311 310 309 309 310 311 311 311 311 311 312 311 312 312 311 310 308 307 308 309 310 310 309 306 304 305 307 309 311 312 313 314 314 314 314 315 314 315 315 315 316 317 318 319 319 320 321 322 323 325
320 320 320 320 320 320 320 320 320 320 320 320 320 320 320 320 320 320 319 319 319 318 318 318 318 318 318 317 317 317 317 317 317 317 316 314 311 310 310 310 310 311 311 311 311 311 312 312 312 311 310 308 307 308 308 309 310 310 309 307 306 306 307 310 312 313 313 314 314 313 314 314 315 315 315 315 315 316 317 318 319 320 321 322 323
321 321 321 321 320 320 320 320 320 320 319 319 319 319 320 320 320 320 320 320 319 319 319 318 318 318 318 318 317 317 317 317 317 317 317 316 313 311 310 310 311 311 311 311 311 311 311 311 311 310 309 308 308 308 308 308 310 311 311 310 308 306 307 310 313 312 312 313 314 313 313 314 314 314 315 315 314 314 315 316 317 319 320 320 321
321 321 321 321 321 321 321 321 320 320 320 319 319 319 319 319 320 320 320 320 320 319 319 319 319 319 319 318 318 318 318 317 317 317 317 318 316 313 311 311 311 311 311 311 311 310 310 311 310 310 309 308 308 308 308 308 309 311 312 311 310 308 306 307 309 310 311 313 314 313 313 313 314 315 315 315 315 315 314 314 315 317 318 319 320
321 321 321 321 321 321 321 321 321 321 320 320 319 319 318 318 319 319 320 320 320 320 320 319 319 319 319 319 318 318 318 318 318 317 317 317 317 316 313 312 311 311 311 311 310 310 310 310 310 310 309 308 309 309 308 308 309 310 311 312 311 310 308 307 308 309 311 312 313 313 313 313 314 315 314 315 315 315 314 314 314 315 317 319 320
321 321 321 321 321 321 321 321 321 321 321 321 320 320 319 319 318 318 318 318 319 319 319 320 320 319 319 319 319 319 319 319 318 318 318 317 317 317 315 313 312 311 311 311 310 310 310 310 311 310 309 309 309 310 310 309 308 309 310 312 312 311 310 308 308 308 308 310 312 313 313 313 314 314 315 314 315 315 315 315 315 315 317 319 319
321 321 321 320 321 321 321 320 320 321 321 321 321 320 320 319 319 318 318 318 318 318 318 319 319 319 319 320 320 319 319 319 319 319 318 318 318 317 316 314 313 312 312 311 310 310 311 310 311 310 310 310 310 310 310 310 309 308 308 309 311 312 311 310 309 308 308 308 310 312 313 313 313 314 314 314 314 314 315 315 315 316 317 317 316
Wind_Speed
1 1 1 1 2 3 4 5 5 6 5 5 4 4 4 4 4 4 4 4 4 4 5 4 5 5 5 6 6 7 8 8 8 8 7 6 6 7 7 10 12 12 11 12 11 12 13 12 13 14 15 16 17 17 16 15 15 12 11 13 15 16 16 15 14 14 13 13 12 11 11 11 9 10 10 9 8 6 7 12 12 14 17 17 17
5 3 2 3 3 4 5 5 6 7 6 5 4 4 4 4 4 3 3 4 5 5 5 5 6 6 6 5 6 7 7 8 9 9 8 8 7 6 6 7 9 10 10 10 10 11 13 13 13 14 15 16 17 17 17 16 15 14 11 12 15 16 16 15 13 13 12 12 11 10 9 8 8 11 12 11 9 6 6 9 10 12 15 17 16
7 5 3 3 4 5 5 5 7 8 7 6 5 5 4 4 4 3 3 4 5 5 5 5 6 6 6 7 7 7 7 8 8 8 9 8 8 7 8 8 7 8 8 8 9 10 12 14 13 14 15 17 18 18 19 18 17 15 12 12 15 16 17 16 13 12 12 12 11 9 8 7 9 12 14 12 9 6 4 5 7 10 13 16 16
7 6 5 5 5 5 5 6 7 8 8 7 6 6 6 6 5 5 5 5 5 6 6 6 6 6 7 7 7 8 8 8 8 8 7 7 7 7 9 9 7 7 8 9 9 9 10 12 12 13 14 17 19 20 20 20 19 17 15 13 15 17 17 17 14 13 13 12 11 10 8 8 10 12 12 11 9 6 4 4 7 10 10 13 16
8 7 6 6 7 7 7 8 8 9 8 7 6 7 7 7 7 6 6 7 7 7 7 7 7 7 7 7 7 8 8 8 8 8 7 6 5 6 7 8 7 7 8 9 9 8 8 9 12 14 14 16 19 20 20 21 20 20 17 14 15 16 17 17 16 14 14 12 11 10 9 8 10 11 11 11 10 7 6 5 6 11 11 10 13
8 8 7 7 7 8 8 8 8 8 8 7 6 7 7 8 7 7 8 8 9 8 8 8 7 7 7 8 8 8 8 8 7 7 6 5 5 5 6 7 8 7 6 8 8 8 8 9 12 14 14 15 17 18 20 21 21 21 20 17 15 16 16 17 17 16 15 13 12 11 10 8 10 12 12 12 11 9 8 7 5 8 12 10 10
8 9 9 9 9 8 8 7 6 7 7 7 7 7 7 8 8 8 8 8 9 9 8 8 7 7 7 8 8 9 9 9 7 6 5 5 4 4 5 6 7 8 6 7 8 8 8 9 10 12 14 16 17 18 19 22 22 22 21 18 16 15 16 17 17 17 16 15 14 13 11 8 9 12 13 12 12 10 9 8 7 7 10 11 10
9 10 10 10 11 11 9 7 6 5 5 6 7 7 7 8 8 9 9 8 9 9 9 8 7 7 7 8 8 8 8 8 7 5 4 5 5 5 5 5 6 7 7 7 8 9 9 9 10 11 13 14 16 18 20 22 24 23 21 20 18 16 16 17 17 17 17 16 16 15 13 9 9 11 12 12 12 11 9 9 9 8 8 10 11
10 10 10 10 11 11 9 8 7 6 6 5 6 7 7 8 8 9 10 9 9 9 9 8 7 7 7 7 8 7 6 6 5 5 5 6 6 6 5 5 5 6 6 6 7 9 10 10 10 10 11 11 13 18 20 22 23 23 22 20 20 18 17 18 18 17 17 17 16 14 13 11 10 11 13 14 14 12 10 10 11 10 9 8 10
10 10 9 10 10 10 8 7 7 7 6 6 6 6 7 8 9 10 10 10 11 10 9 8 6 6 7 8 8 6 4 3 3 4 5 6 6 6 5 5 4 4 5 5 6 9 10 11 11 11 11 11 13 16 18 20 22 23 22 21 22 20 18 18 19 17 17 17 16 14 12 12 11 11 13 14 14 13 12 11 10 10 10 9 8
13 11 10 10 10 10 9 8 7 7 6 5 5 5 7 8 9 9 10 11 11 11 11 9 7 6 6 7 7 5 3 2 1 2 4 5 6 6 6 5 4 4 4 4 5 6 8 9 10 10 11 12 13 14 16 18 20 21 21 22 23 22 18 18 18 18 18 18 16 14 13 13 13 12 12 13 15 15 14 12 11 11 11 10 10
15 14 12 11 11 11 10 9 9 9 8 7 6 6 7 9 9 9 9 10 10 10 11 10 8 6 4 5 5 6 5 5 3 2 2 4 5 6 7 7 6 5 4 4 4 5 6 7 8 9 9 11 13 14 15 16 17 18 20 22 22 22 20 18 18 18 19 18 17 15 14 14 14 13 13 13 14 15 14 13 13 12 11 11 12
16 16 15 13 12 11 11 11 11 11 10 10 9 9 9 9 9 10 10 10 10 9 9 9 8 5 2 2 5 7 7 6 5 4 4 5 6 7 8 8 8 6 5 5 5 4 5 6 8 9 9 10 12 14 15 15 16 17 19 22 23 23 23 20 19 19 19 19 18 17 15 14 14 13 14 14 14 15 14 13 12 12 11 10 12
16 17 16 15 13 12 11 11 12 12 12 11 10 10 9 8 8 9 10 10 10 10 10 8 7 4 1 1 4 7 8 7 5 5 5 5 6 8 9 9 9 8 7 7 6 6 5 6 7 8 9 9 10 13 14 14 15 16 18 22 23 24 24 23 20 19 19 19 18 18 17 15 13 13 13 13 14 15 16 15 13 12 11 10 11
16 18 18 16 14 12 12 12 12 13 13 12 12 12 11 10 9 8 8 8 8 9 9 9 8 6 2 1 1 4 6 6 7 5 5 5 5 6 8 9 10 10 9 9 8 8 7 7 7 7 9 9 9 11 14 14 14 15 17 20 23 24 25 24 23 21 20 21 20 19 19 16 14 13 13 13 14 14 16 17 14 12 13 12 12
16 18 19 17 14 13 12 12 12 13 14 14 13 13 12 11 10 8 7 6 6 7 8 8 8 6 4 1 1 1 2 5 7 5 4 4 4 6 7 8 8 9 9 10 9 9 9 9 8 8 8 8 8 10 12 13 13 14 16 17 21 24 25 25 25 24 22 22 22 20 20 19 16 15 16 15 14 14 15 16 15 14 15 15 14
15 17 19 18 15 13 11 11 12 13 14 14 14 13 11 11 10 9 8 6 6 7 7 7 7 7 6 4 3 3 4 7 5 3 3 4 5 6 7 7 7 8 9 9 10 9 9 9 9 8 7 6 7 9 11 13 13 13 15 16 18 21 23 24 26 26 24 24 23 21 21 20 18 17 17 17 15 14 14 16 16 15 15 16 16
14 15 18 19 17 14 12 11 12 13 13 14 14 13 11 10 10 9 8 7 6 5 4 5 6 6 7 7 5 4 5 7 6 4 4 2 4 5 5 6 7 7 8 9 9 9 10 10 9 8 6 5 5 7 9 11 12 13 14 14 15 17 20 23 25 27 26 25 25 23 22 21 20 19 19 18 18 16 15 15 17 16 15 15 16
13 14 16 18 18 16 13 11 11 12 12 12 13 14 13 11 9 9 8 8 7 5 4 3 3 4 6 6 5 4 4 6 7 8 6 3 3 3 4 5 6 7 8 8 9 9 9 9 9 8 6 5 4 5 8 10 11 12 13 14 15 15 17 20 23 27 28 28 28 26 24 22 22 20 20 19 19 18 16 16 16 15 14 14 15
12 12 14 17 18 17 14 11 11 11 11 12 12 14 14 11 9 9 8 8 7 6 5 3 2 3 4 3 4 4 5 7 8 8 8 8 7 3 1 2 4 6 8 8 9 9 9 9 9 9 8 6 5 5 7 10 11 12 13 14 15 16 16 18 21 26 29 29 29 28 26 25 23 22 21 21 21 20 19 17 16 15 14 14 14
11 11 12 14 16 16 15 13 11 11 11 11 11 12 15 14 11 10 9 8 8 7 6 5 4 3 2 3 4 4 4 6 7 7 8 9 10 9 7 3 1 4 6 7 8 9 9 9 9 9 8 7 5 5 5 8 11 13 14 13 13 14 15 16 18 22 26 29 30 30 28 27 26 24 23 23 23 23 22 20 18 17 15 15 15
10 10 10 12 14 14 14 14 13 13 12 11 10 11 13 14 13 12 9 8 8 7 7 6 6 5 5 4 4 4 3 4 5 6 7 8 9 12 13 11 8 4 5 6 7 8 8 8 8 7 7 7 6 5 5 6 8 11 12 12 12 13 13 14 15 18 22 26 29 31 30 29 28 26 25 25 24 24 24 23 21 19 18 17 16
9 9 9 10 12 12 13 13 13 13 14 13 11 10 11 13 13 12 11 9 8 8 7 6 5 5 4 4 4 4 4 5 6 7 7 8 10 12 13 14 13 9 5 4 5 6 6 6 6 6 6 6 6 5 6 6 7 8 9 12 13 14 13 12 12 15 20 23 27 29 30 30 29 27 27 26 25 25 24 24 23 21 20 19 18
8 8 8 8 9 10 11 11 12 12 13 13 13 12 11 12 13 13 13 12 11 11 9 8 7 5 2 4 5 5 5 5 6 7 7 8 10 11 12 13 13 11 9 4 1 2 4 4 5 5 5 5 5 5 6 6 7 7 8 10 13 14 14 13 12 12 16 21 25 28 29 30 29 28 29 27 26 26 25 25 25 23 22 21 20
7 7 7 7 7 8 9 9 10 10 11 12 12 12 12 11 11 12 13 13 13 12 10 9 9 7 4 3 3 4 5 5 6 6 7 8 9 10 11 11 11 11 9 6 4 3 2 2 3 3 4 5 5 6 6 6 7 8 8 9 11 13 14 14 13 13 13 17 22 26 28 29 28 28 30 29 27 27 26 26 26 25 23 22 22
6 5 5 5 5 6 7 8 8 8 9 9 10 11 11 10 10 10 11 11 11 11 11 10 9 8 6 4 1 2 4 6 6 6 6 6 8 10 11 11 11 10 8 6 5 4 3 3 2 2 2 3 4 5 5 6 7 8 9 10 10 12 13 14 15 15 14 14 18 21 24 25 26 27 29 29 29 29 28 28 27 26 25 23 23
6 6 5 4 4 5 5 6 7 7 6 8 8 8 9 10 9 9 9 9 9 9 10 10 10 9 7 6 3 1 3 4 6 7 6 6 8 9 11 12 12 12 10 7 4 3 5 4 3 3 3 3 4 5 5 6 7 8 9 10 10 10 11 13 14 15 15 16 16 17 19 22 23 25 27 29 30 31 31 29 29 28 27 25 24
6 6 6 5 5 5 4 5 6 6 5 5 7 7 7 8 9 9 9 9 9 9 10 10 9 9 9 8 5 2 2 3 5 6 7 7 7 8 9 11 12 13 13 11 7 5 6 6 6 6 6 6 6 5 6 6 6 7 8 9 9 9 10 11 12 13 15 17 16 15 16 19 21 23 26 28 30 32 33 33 32 31 29 28 25
7 7 8 7 6 6 5 4 4 5 5 5 5 5 6 6 7 8 9 9 9 9 9 9 9 9 9 9 7 5 4 4 5 6 6 7 7 7 8 9 10 12 13 14 12 8 7 9 8 9 8 9 9 8 8 8 8 8 8 8 9 9 10 10 10 11 13 16 17 17 16 16 17 19 21 24 26 29 31 33 33 33 32 31 28
8 8 9 8 8 8 7 5 4 4 5 5 5 5 5 5 5 6 7 8 9 8 9 9 9 9 9 8 8 7 6 5 6 7 6 6 6 7 8 9 10 10 11 13 13 11 10 11 10 11 11 10 11 11 10 10 10 10 9 9 9 10 10 10 9 9 10 12 14 16 17 16 16 17 18 21 23 25 27 29 31 33 34 34 31
10 10 11 9 8 9 8 7 5 4 4 5 5 6 5 5 5 6 6 8 8 9 9 9 9 10 9 8 8 8 7 5 5 7 7 6 6 7 8 9 9 10 10 12 13 13 13 12 11 12 12 12 12 12 10 10 11 11 11 11 11 11 10 10 10 9 9 10 10 11 13 14 16 17 18 20 21 22 24 26 28 31 33 34 32
11 13 14 11 9 9 9 8 8 6 5 5 6 6 7 6 7 7 6 7 8 8 9 10 10 11 10 9 9 8 8 6 5 6 8 7 7 6 7 9 9 10 9 10 13 13 12 12 12 12 12 11 11 12 11 10 9 10 11 12 12 12 11 10 10 9 9 9 9 9 11 12 15 17 19 20 20 21 22 24 25 28 31 32 31
12 14 15 13 11 10 10 10 10 8 7 6 6 7 7 7 7 7 7 8 8 7 8 10 11 12 12 11 9 8 8 8 6 6 7 7 7 7 7 8 9 9 10 11 13 14 12 11 11 12 12 11 11 13 13 11 9 9 10 11 11 12 12 12 12 11 11 10 10 10 11 13 14 16 18 20 21 21 22 23 23 25 28 29 30
13 14 15 14 12 11 11 11 11 11 9 8 8 8 8 8 7 7 7 8 8 7 7 9 10 12 13 13 11 9 9 9 7 7 7 7 7 7 7 8 8 9 11 12 14 15 16 15 14 12 12 12 12 13 14 13 12 11 10 11 12 12 13 13 13 13 12 12 11 11 11 12 14 15 16 18 20 21 22 23 22 21 23 26 28
12 13 14 14 13 12 13 12 12 12 11 10 10 10 9 8 8 7 7 7 7 7 8 8 10 11 13 14 12 10 9 10 9 8 8 8 7 6 6 7 8 9 10 12 14 15 17 18 16 15 14 14 14 15 16 15 14 13 12 12 13 12 13 13 14 13 13 13 12 11 10 10 11 13 15 16 18 19 20 21 20 20 22 23 25
13 13 13 13 13 13 14 13 13 12 12 12 12 12 11 10 10 9 8 8 8 8 8 9 9 11 13 14 14 12 10 10 10 9 8 7 6 6 7 7 8 9 9 11 12 13 14 15 15 14 15 15 16 16 16 16 15 14 13 13 13 13 12 13 13 13 13 12 12 11 10 10 10 10 12 14 15 16 17 18 18 20 21 21 21
14 14 13 13 13 13 14 14 13 13 12 13 14 14 13 12 11 10 10 9 9 9 9 9 10 11 13 14 15 14 12 10 10 9 7 6 6 7 7 8 8 9 10 10 10 10 11 13 14 13 13 15 16 15 15 16 16 15 14 13 13 13 13 12 12 12 12 12 11 11 10 10 10 10 10 11 12 14 16 17 18 19 20 19 19
13 14 14 13 13 13 13 13 13 12 12 13 15 15 15 14 13 12 11 11 11 11 10 10 10 12 13 15 15 16 14 11 9 9 8 7 7 8 9 8 9 10 10 9 9 9 10 12 13 14 14 14 15 15 15 15 16 16 16 15 13 13 14 13 12 13 13 12 12 11 11 11 10 10 10 10 10 12 15 17 18 18 19 20 20
8 10 11 11 11 11 11 11 10 10 11 13 14 15 15 15 15 14 13 13 13 12 12 11 11 12 14 14 15 16 16 13 10 9 9 8 8 9 8 8 9 9 9 8 7 8 9 11 13 14 14 14 15 16 15 15 16 16 16 17 16 14 14 13 13 13 13 13 13 12 11 11 11 11 11 10 10 11 13 15 18 19 19 19 20
5 5 6 7 8 8 8 9 9 9 10 11 12 13 14 15 15 15 15 15 15 15 14 13 12 13 14 14 14 15 16 14 11 9 8 8 8 8 7 7 7 7 6 6 6 7 9 12 13 15 17 17 17 17 15 15 15 15 15 17 17 15 14 13 13 13 13 13 13 12 11 11 11 11 10 11 11 11 13 14 16 18 19 19 20
8 7 7 7 8 8 8 9 9 10 11 11 11 11 12 13 14 14 15 15 16 16 15 14 13 13 14 13 13 15 15 15 12 10 9 9 9 7 6 6 6 6 6 6 7 8 10 13 15 16 18 20 20 19 18 17 15 15 15 16 16 16 15 14 12 12 13 12 12 13 12 11 11 11 11 11 10 11 13 14 15 16 18 19 20
13 12 11 11 10 10 10 10 10 11 12 11 11 11 12 12 13 13 13 14 15 16 15 15 14 14 13 13 13 14 15 15 13 12 11 10 10 9 8 8 8 8 9 9 10 11 13 15 16 18 19 21 21 21 21 20 18 15 15 16 17 16 17 16 13 11 11 12 12 12 12 12 12 12 12 12 11 11 11 13 14 16 17 18 20
14 15 15 15 14 14 13 13 13 14 14 13 12 12 13 13 14 14 14 14 14 15 15 14 14 13 13 13 13 14 15 14 13 12 12 11 11 11 10 10 9 10 10 11 12 13 14 16 17 18 20 21 20 20 22 21 19 17 15 15 16 16 16 18 17 13 11 12 14 13 12 12 13 12 13 13 12 12 11 12 13 14 15 17 19
14 15 17 17 17 17 17 17 17 17 17 15 14 14 15 15 16 16 16 15 16 16 16 15 14 14 14 14 14 14 15 14 14 13 12 12 12 12 12 11 11 11 12 13 14 15 15 17 17 18 19 20 20 20 21 21 20 18 17 15 14 15 15 17 18 16 13 13 14 15 13 12 12 13 13 14 14 13 12 12 12 13 14 15 17
14 15 17 18 18 19 20 20 20 20 20 19 18 17 17 17 18 18 18 18 18 18 18 17 16 15 15 15 15 15 14 14 15 14 13 13 13 14 14 14 14 14 14 15 16 16 17 17 18 17 18 19 20 19 20 21 21 19 18 16 14 14 15 16 18 17 15 13 14 16 15 13 13 14 14 14 15 14 12 11 11 11 12 12 12
17 17 17 18 19 19 20 20 21 21 21 21 20 20 21 20 20 21 21 21 21 21 20 19 18 18 17 17 17 16 15 15 15 16 15 14 14 15 16 17 17 16 16 16 16 17 17 17 17 17 16 16 18 18 19 20 21 20 19 18 16 15 15 16 17 17 15 14 14 16 16 14 13 14 13 13 15 14 13 13 11 11 11 11 11
20 20 20 20 20 20 21 21 21 21 20 19 20 20 21 22 23 23 24 25 25 24 23 22 21 20 19 19 19 19 18 17 16 16 17 17 16 17 18 19 19 17 16 16 16 17 17 17 17 16 15 15 16 17 18 19 21 21 21 20 18 17 16 16 17 17 15 14 14 16 17 16 14 14 13 13 14 14 13 14 13 12 10 9 9
23 23 23 24 23 23 23 23 23 23 22 20 19 19 19 21 22 25 26 28 28 27 26 24 23 22 22 22 22 22 21 20 18 17 17 18 19 19 20 21 20 19 18 16 17 18 18 18 17 15 14 14 15 17 17 18 20 21 21 20 19 17 17 18 20 18 16 15 14 15 18 17 14 12 12 12 11 11 11 12 12 11 9 7 8
23 24 24 24 25 25 25 25 26 26 24 23 22 21 20 19 21 23 26 27 29 30 29 27 26 25 24 24 23 24 24 23 22 20 19 19 20 21 22 22 22 22 20 18 18 18 18 18 17 15 13 13 15 16 17 18 20 21 21 20 19 17 17 19 21 21 18 16 15 16 18 16 12 11 12 10 8 8 10 11 11 9 7 7 8
24 24 24 24 24 24 24 25 26 26 26 24 24 24 23 21 21 22 24 26 28 29 29 29 29 28 27 26 25 26 26 25 24 22 21 21 22 22 22 22 22 23 21 19 19 18 18 19 18 15 14 14 15 16 16 17 19 20 21 20 19 18 18 19 20 22 21 19 16 16 17 15 12 12 12 12 11 10 10 10 10 9 8 8 8
26 25 25 25 24 24 24 24 24 25 26 25 25 26 26 26 25 24 24 26 28 28 28 29 29 30 29 28 28 28 28 27 26 25 25 24 24 24 23 22 23 23 19 18 18 18 18 19 18 16 15 14 15 16 16 16 18 20 21 20 19 18 19 18 18 19 21 20 17 16 17 16 15 15 13 13 13 13 12 10 10 10 9 7 9
Wind_Direction
98 222 282 308 303 307 313 318 323 328 330 333 338 344 346 337 331 325 311 302 303 308 312 312 301 291 286 281 272 266 263 263 266 268 271 275 284 293 282 264 259 253 243 238 238 240 244 241 236 230 219 213 206 201 202 202 206 202 195 202 193 185 188 191 200 202 203 213 222 233 240 241 227 218 230 230 227 231 191 173 168 165 165 170 174
53 53 13 356 340 321 316 323 329 333 332 332 337 346 348 339 334 325 309 305 309 311 316 317 307 302 301 297 285 277 272 271 271 269 266 268 277 289 294 284 266 249 240 238 237 235 239 240 235 229 223 220 210 202 204 202 208 208 195 203 201 188 188 192 198 202 206 208 211 224 231 227 202 198 217 227 228 228 199 178 168 169 169 170 175
51 52 28 -0 342 326 324 325 326 331 336 336 335 338 342 338 331 323 318 317 315 315 320 318 310 309 308 305 299 291 285 281 279 276 269 267 271 275 286 295 280 256 248 245 236 229 235 237 230 223 222 222 214 206 205 202 207 211 199 201 204 193 189 192 197 199 199 198 205 222 226 215 195 198 214 223 227 224 211 193 171 172 172 173 175
40 40 29 9 352 344 342 332 324 326 333 337 338 338 335 331 329 329 329 327 326 328 328 321 312 312 308 305 303 297 292 287 286 285 279 274 273 273 279 288 284 264 256 247 238 234 236 234 229 226 223 221 217 210 208 204 204 209 204 198 203 199 192 192 197 196 194 198 210 225 231 218 201 198 205 211 217 216 214 213 184 179 179 179 177
28 24 18 7 355 349 346 340 330 324 325 329 336 338 334 329 328 328 330 331 334 337 340 336 325 319 310 301 301 301 298 295 293 290 290 288 283 278 275 279 277 263 254 254 254 250 245 235 229 227 222 221 222 216 212 208 204 205 203 196 201 203 198 193 193 197 197 201 211 226 237 219 193 187 193 202 211 216 214 214 198 184 181 185 182
27 20 9 358 347 340 339 337 333 329 329 331 333 332 330 330 330 330 331 330 331 335 342 345 335 324 316 310 306 304 302 304 304 294 291 294 296 294 283 277 273 267 258 261 268 261 252 243 232 228 222 218 223 224 217 212 210 209 203 198 201 204 203 196 192 197 199 199 208 223 235 216 187 185 193 200 206 217 217 212 212 186 179 188 191
24 20 14 9 4 358 353 348 347 347 343 339 335 331 328 330 333 332 329 326 325 325 328 333 336 331 327 325 318 307 304 308 310 298 295 303 314 313 299 287 279 276 272 272 278 269 257 251 241 235 229 217 215 224 223 216 215 213 207 203 205 205 204 201 196 197 200 200 204 216 228 218 194 190 193 199 205 214 218 212 212 191 176 184 193
22 20 16 15 15 14 14 11 10 6 353 342 333 329 329 332 334 332 327 321 319 321 321 321 330 336 331 332 327 314 305 307 309 302 307 322 329 328 317 307 296 287 282 276 277 273 261 254 250 243 238 223 211 218 224 219 215 212 209 207 208 209 206 205 204 199 200 205 208 214 220 215 202 192 187 195 207 214 220 214 207 194 178 181 189
18 19 14 10 9 12 17 22 22 17 4 350 334 327 326 328 330 329 327 323 319 322 325 322 325 332 329 334 339 328 311 301 297 296 312 324 325 327 326 317 305 296 288 278 268 267 261 251 251 250 247 238 221 219 221 222 220 213 211 211 209 212 209 206 209 206 204 211 217 218 214 210 207 194 185 192 205 214 219 214 206 196 185 184 185
12 10 7 2 2 7 12 16 20 18 9 354 340 332 326 325 328 329 327 325 324 325 328 329 332 332 329 338 347 344 330 308 290 292 309 316 319 325 328 327 316 300 291 282 266 260 260 254 251 253 254 248 235 227 223 224 223 216 214 215 213 214 213 209 210 211 210 214 221 222 213 209 208 197 190 192 199 209 214 215 215 205 193 190 187
17 9 2 359 358 3 5 5 9 10 2 347 335 332 330 330 333 335 333 331 330 329 328 330 337 336 336 349 6 21 34 45 349 299 306 313 323 328 330 331 329 323 310 296 279 264 262 259 254 254 256 251 241 236 232 227 225 219 216 218 216 213 214 214 212 211 215 218 220 223 218 211 207 201 195 192 196 207 215 219 220 212 199 194 191
23 14 6 1 357 360 2 1 3 4 1 354 345 340 338 339 341 341 339 335 332 328 325 328 336 339 343 9 43 64 67 74 70 21 341 338 342 341 341 342 337 333 323 305 293 278 270 268 264 262 262 256 247 240 237 232 229 224 218 217 218 216 216 217 216 214 217 222 222 224 222 213 206 202 201 198 197 206 216 219 214 208 201 199 196
24 18 11 4 358 357 359 2 4 5 7 7 0 351 344 341 341 340 337 335 335 334 331 335 341 339 343 47 81 83 72 75 74 53 29 10 4 2 2 1 355 346 334 318 308 298 284 277 272 269 269 262 250 241 237 234 230 226 221 217 218 218 216 216 219 218 217 222 224 226 224 216 209 204 203 205 201 204 212 214 212 208 202 200 198
22 19 15 7 -0 357 357 1 3 5 8 6 0 352 345 340 338 340 341 340 342 343 342 347 353 346 312 150 115 99 81 69 63 54 38 21 13 12 13 11 8 4 356 341 329 325 317 299 283 273 272 269 252 239 235 235 233 230 226 221 219 220 217 215 219 219 219 221 224 229 226 219 217 210 206 210 207 203 207 212 214 209 205 203 199
17 18 17 10 1 356 357 359 359 1 2 359 357 355 353 351 349 353 354 351 348 346 347 355 359 354 329 242 161 132 118 76 55 52 40 28 14 9 12 12 9 8 4 358 347 342 339 326 309 288 279 273 254 236 230 232 235 236 233 227 223 221 219 218 219 219 220 221 224 230 228 222 223 217 213 217 212 205 208 213 215 210 209 211 205
11 15 17 15 6 358 357 357 357 358 357 356 357 358 0 1 -0 6 8 7 8 3 359 -0 0 2 8 350 330 152 131 43 45 57 39 26 15 10 13 11 7 3 -0 -0 358 355 349 337 324 309 296 282 255 233 227 228 231 236 237 234 227 224 222 221 221 221 221 223 226 230 229 225 224 221 218 222 218 211 211 214 218 215 211 212 210
6 12 16 19 16 8 2 358 356 356 356 356 358 1 5 4 4 7 7 16 24 15 6 6 10 13 19 27 29 41 16 4 26 59 23 11 21 21 19 14 7 1 356 356 357 360 358 346 333 323 315 297 258 233 227 225 227 233 236 238 233 229 228 225 224 224 222 224 227 230 230 228 227 225 221 221 223 219 215 216 219 218 215 214 214
1 8 13 18 19 16 10 4 -0 359 360 -0 4 9 8 2 3 2 359 8 16 9 10 20 19 17 26 40 45 37 10 358 3 3 348 357 28 27 25 22 18 7 357 352 352 355 357 352 343 335 326 312 269 243 235 227 227 233 236 241 241 235 234 232 230 227 223 225 228 229 230 229 229 229 223 221 225 224 219 218 218 219 220 220 219
358 3 10 16 18 18 16 13 9 6 7 9 14 18 16 11 10 8 4 2 -0 359 16 32 27 28 37 41 36 26 5 349 348 349 343 330 348 16 32 30 27 18 6 357 352 351 353 351 345 341 334 326 303 268 246 232 232 237 238 243 244 242 241 239 237 233 226 225 227 227 228 231 231 230 226 224 227 227 223 220 219 220 222 224 224
356 358 6 13 17 20 22 23 22 17 17 18 22 26 27 28 24 19 16 8 3 3 4 3 5 31 40 25 7 1 347 335 334 341 339 326 317 316 21 46 43 29 20 14 5 355 350 351 347 342 338 335 326 290 254 239 240 242 242 243 244 246 248 246 242 238 233 230 229 227 226 228 230 230 227 225 226 229 228 224 221 221 221 222 225
352 354 1 9 14 21 28 36 38 30 24 23 27 32 34 37 36 30 26 21 23 19 7 1 355 348 349 349 351 349 336 330 330 331 333 333 328 319 317 320 22 36 27 27 23 8 356 351 349 343 337 334 330 309 271 250 247 246 243 245 248 249 251 251 246 240 239 236 233 231 229 227 228 229 229 226 224 227 230 228 223 222 222 221 222
346 348 354 4 10 19 29 39 45 40 33 30 33 37 37 40 42 39 36 34 35 30 19 14 5 353 341 330 328 332 335 338 341 338 335 337 330 320 317 316 312 330 14 28 27 20 12 1 352 347 341 338 335 322 303 282 268 258 250 249 252 251 253 256 251 242 241 239 234 231 231 229 227 228 231 229 225 226 230 231 227 224 222 223 223
343 343 346 357 7 15 23 32 41 43 41 39 42 43 43 44 44 44 45 43 37 29 27 27 18 9 8 8 6 359 356 -0 2 357 347 339 332 325 320 316 310 306 321 4 19 17 21 20 9 2 355 351 346 330 316 306 295 279 262 255 256 257 257 260 259 248 242 239 235 233 234 233 230 229 231 231 228 227 230 233 233 228 225 224 225
345 342 340 348 0 10 18 24 32 39 40 40 42 47 51 52 49 46 46 46 41 35 36 39 36 35 51 57 49 33 18 10 3 358 351 344 339 333 325 320 316 305 297 297 314 352 2 20 31 27 12 4 2 350 335 321 308 293 276 263 261 262 260 261 264 258 247 241 237 237 239 237 233 232 231 230 230 229 229 232 235 233 228 225 226
344 338 334 339 352 4 12 16 24 33 37 37 38 42 50 55 54 49 46 45 43 39 37 36 36 44 62 72 52 27 14 3 355 351 346 342 341 337 332 332 332 324 314 296 264 260 294 333 11 33 23 11 8 4 355 341 323 307 293 280 270 267 264 263 264 261 254 246 238 237 241 241 237 237 237 234 232 231 228 230 235 236 232 228 227
338 331 322 322 336 357 7 10 15 26 34 35 33 35 40 46 50 49 44 42 40 38 36 35 35 42 55 60 31 350 356 354 358 358 345 343 348 343 342 346 345 343 343 330 302 277 258 264 292 321 353 1 1 359 354 347 337 327 316 303 292 282 274 271 268 263 257 250 243 242 245 244 240 240 243 240 237 235 230 227 232 236 236 233 230
320 319 310 300 312 339 -0 5 8 18 29 32 30 30 31 35 41 44 42 38 35 31 28 29 30 30 37 43 28 341 341 348 3 7 356 352 353 349 350 352 351 353 357 357 348 317 290 275 259 271 295 308 329 341 342 342 337 335 333 324 316 306 292 282 275 269 261 254 251 249 248 247 242 240 242 243 240 239 237 231 229 232 233 233 231
303 311 310 298 295 312 339 354 2 10 18 25 29 28 27 30 37 41 41 37 34 29 22 19 20 18 19 21 17 358 321 322 345 358 1 359 354 354 357 357 355 354 355 359 7 -0 331 312 287 281 294 297 302 316 325 328 327 331 337 333 326 319 309 297 286 277 268 262 259 254 249 248 246 241 241 243 242 242 241 237 233 231 232 232 232
296 306 310 305 295 295 310 325 344 359 5 15 24 26 23 26 32 35 37 36 32 28 22 16 11 8 7 7 2 351 326 307 312 327 350 2 354 352 355 356 357 354 351 351 355 1 358 344 326 310 306 305 302 302 308 311 313 319 326 328 327 322 318 315 304 289 277 270 266 262 258 254 250 246 244 246 246 245 243 240 238 236 234 234 233
290 296 299 301 296 290 295 299 308 336 349 359 8 9 9 11 14 19 23 26 28 25 19 13 7 1 359 357 353 347 332 314 308 311 329 351 350 347 348 347 350 349 345 342 343 351 354 353 349 334 324 324 317 307 305 307 306 309 311 314 319 320 321 324 321 311 296 284 276 269 266 264 258 252 250 250 250 249 246 243 242 240 237 236 233
284 285 283 285 284 281 284 287 288 301 319 334 344 346 347 349 349 354 -0 6 15 21 17 10 4 358 354 349 346 343 332 317 310 309 310 317 326 337 340 338 338 337 339 335 334 343 346 345 350 343 335 339 334 320 313 311 308 307 306 306 308 312 317 320 320 319 313 304 296 283 274 268 263 259 258 258 256 255 252 248 246 242 240 239 237
280 282 283 282 274 269 271 275 278 284 288 300 315 324 330 333 334 336 338 343 355 8 11 9 4 357 352 346 340 338 334 325 309 307 308 305 308 320 328 332 333 330 333 334 329 332 338 340 342 342 339 341 338 329 324 320 315 310 308 305 304 306 309 311 310 310 310 306 303 298 290 281 272 267 265 263 260 258 256 254 252 247 244 243 241
277 281 286 287 279 267 264 265 269 273 273 276 287 298 310 320 325 329 326 325 334 349 358 2 2 358 354 349 338 327 327 328 316 306 305 303 302 305 309 316 323 325 326 326 324 323 323 326 329 334 338 340 338 333 330 327 321 316 314 311 308 307 306 306 306 305 305 303 299 296 295 290 281 273 267 264 261 258 257 258 258 255 251 247 241
275 277 281 286 283 269 264 264 264 265 264 265 270 278 291 304 314 322 320 315 318 328 338 348 353 354 354 352 344 323 311 317 318 306 298 297 299 300 300 303 309 317 318 315 315 315 314 316 321 324 328 334 337 335 332 331 327 323 322 320 316 313 309 307 307 306 306 306 303 297 293 288 281 275 271 267 263 260 259 260 260 260 258 252 245
276 273 275 281 281 269 264 265 265 263 260 258 260 266 275 286 296 307 312 311 314 319 325 334 341 346 349 350 347 330 306 302 305 302 297 290 289 297 300 300 305 312 315 312 310 310 311 316 324 327 324 326 330 330 329 329 328 324 321 319 318 318 315 311 309 309 307 306 305 301 292 285 279 275 274 270 266 263 260 259 258 259 260 256 250
280 277 272 272 272 267 264 267 268 263 257 254 256 261 267 275 283 291 298 303 310 316 320 326 331 338 343 346 346 336 316 300 295 297 298 284 275 289 299 303 312 319 321 317 312 311 314 319 326 330 327 323 323 325 324 323 322 320 317 313 310 309 310 311 311 311 310 308 306 304 298 290 282 276 272 269 268 265 264 263 261 259 259 256 250
279 279 273 267 265 263 264 269 270 263 256 254 254 257 263 270 275 280 284 289 297 305 311 318 324 331 336 340 341 337 327 309 294 289 288 273 265 278 289 299 313 322 327 324 316 314 319 325 328 329 326 321 319 320 321 319 317 315 314 312 309 304 301 301 303 306 308 307 305 302 299 295 289 282 273 266 262 258 257 260 262 260 258 254 248
274 274 272 268 265 265 268 271 269 262 258 256 255 256 259 264 270 275 279 280 284 291 300 309 316 324 330 332 334 335 330 318 300 286 276 263 263 271 279 289 303 315 322 321 317 315 321 327 329 328 327 324 321 319 317 316 314 314 313 312 313 312 305 295 289 290 296 301 303 302 299 295 290 286 279 270 263 256 253 255 257 257 256 253 248
275 271 269 268 267 266 267 267 265 261 258 258 259 260 261 265 270 275 279 279 278 282 290 300 308 315 321 325 327 330 331 322 304 286 273 263 264 273 281 289 299 308 314 315 315 319 327 333 335 335 336 337 335 328 319 311 308 309 311 309 309 311 310 306 298 289 288 292 296 300 300 297 292 287 283 277 269 261 254 251 252 252 251 251 250
288 274 263 257 254 253 252 253 254 253 253 256 259 263 266 269 273 277 280 281 280 281 286 292 299 306 312 316 320 324 329 325 308 286 273 265 265 273 282 288 293 298 304 309 313 318 325 331 336 339 340 343 345 339 329 319 307 301 303 306 307 308 309 313 315 308 298 291 289 291 293 292 291 288 285 281 275 266 258 252 249 250 249 248 248
287 281 269 256 249 247 246 249 252 252 255 258 259 262 266 269 271 274 278 280 280 281 285 288 291 297 302 306 311 318 325 326 313 291 276 267 260 256 255 261 268 276 285 293 302 309 313 320 328 332 335 341 345 342 339 337 324 307 299 298 301 306 306 308 314 316 311 300 290 285 285 286 286 285 283 279 274 268 262 257 253 250 251 249 245
281 279 276 270 266 263 260 259 258 257 262 266 266 265 266 268 270 272 274 277 279 281 284 285 286 290 294 295 300 308 316 322 316 297 281 269 257 243 235 239 247 260 274 282 291 300 305 311 320 324 329 336 342 341 339 338 331 317 304 294 294 299 303 302 304 309 312 308 299 289 287 288 285 282 280 277 271 266 262 260 258 254 252 251 247
275 276 277 274 273 273 271 269 267 266 269 272 272 269 268 271 273 274 276 276 277 278 280 281 283 285 286 286 291 297 303 313 316 303 286 274 260 247 241 243 250 261 273 282 290 296 300 306 313 318 324 330 336 339 338 335 329 321 310 298 293 295 300 302 302 306 314 315 309 302 300 301 294 285 281 277 272 268 262 260 261 258 254 252 250
269 271 273 274 276 276 274 274 273 273 275 277 275 271 268 269 271 273 276 276 274 274 274 277 280 281 281 281 284 290 294 300 308 305 293 279 266 253 246 248 257 267 277 284 290 294 297 302 307 313 321 325 329 336 337 335 332 325 314 304 294 290 291 294 297 304 314 319 314 308 309 312 306 295 287 280 276 273 267 261 262 262 258 256 254
270 269 270 273 276 277 277 278 279 280 281 282 280 275 272 270 269 270 273 274 274 273 272 273 276 277 277 277 278 283 288 292 299 303 297 285 272 261 253 253 260 268 275 282 287 290 293 296 299 308 319 322 324 332 336 336 336 332 322 313 301 290 285 285 290 298 307 315 314 308 307 311 311 304 295 285 278 278 276 269 263 260 258 254 252
271 271 273 273 275 277 279 281 284 286 287 286 284 280 277 274 271 270 272 274 274 273 272 272 273 272 273 272 273 277 281 285 292 299 299 292 279 267 262 262 265 269 274 279 282 284 286 287 291 303 315 317 318 327 333 334 336 335 328 320 309 297 290 290 293 295 299 306 310 306 303 307 311 309 302 292 285 286 288 284 277 268 262 253 245
275 275 275 274 274 275 276 278 280 282 284 286 285 282 279 276 273 270 270 271 272 272 272 272 272 271 271 271 271 272 274 277 283 290 296 295 286 274 268 268 271 273 274 278 282 281 279 279 285 298 309 311 313 321 328 332 333 332 329 324 315 304 294 289 289 288 290 295 301 302 301 305 311 309 302 297 296 295 292 288 285 277 266 258 254
277 277 275 275 275 276 277 277 277 278 280 281 281 280 277 275 273 271 269 269 270 271 271 270 271 271 271 270 271 272 272 273 275 280 287 290 286 279 274 274 275 275 275 278 283 282 277 276 282 294 301 303 308 316 324 329 329 329 328 328 325 314 296 285 284 285 286 288 290 296 300 305 311 308 300 299 300 297 291 289 287 280 267 261 264
277 277 277 278 277 278 278 277 277 279 281 281 280 279 277 275 271 268 267 267 269 270 271 271 270 270 270 269 270 271 272 272 273 273 275 279 280 279 278 277 276 275 276 278 282 282 277 275 281 290 295 298 305 313 319 323 325 326 327 330 331 321 301 286 281 281 281 279 280 288 296 303 308 307 304 305 303 298 299 301 301 292 270 263 269
276 277 278 278 278 277 276 277 278 278 280 282 282 279 277 276 271 267 266 266 266 267 270 271 270 268 268 268 267 268 269 271 272 271 268 269 273 275 275 275 275 274 275 278 281 280 275 274 280 287 291 293 300 308 314 317 318 319 321 326 329 323 312 299 288 282 279 275 273 279 287 296 306 308 303 298 291 288 292 301 304 291 263 260 281
276 276 277 278 279 280 278 278 279 279 281 285 286 283 281 278 274 272 270 268 267 267 269 270 270 268 267 266 266 266 266 267 268 268 265 263 266 271 272 271 271 272 274 278 280 276 272 273 279 285 287 288 293 300 307 309 309 310 314 319 322 321 319 313 304 294 286 281 275 274 279 290 301 304 300 294 290 286 283 285 287 281 270 268 281